Bakersfield, CA

6:27 AM PST on February 25, 2017 (GMT -0800)
Meadows

Weather History for KBFL - December, 2012

Change the Weather History Date:

Sunday, December 2, 2012

  Actual Average Record
Temperature  
Mean Temperature 66 °F 50 °F  
Max Temperature 72 °F 60 °F 87 °F (1915)
Min Temperature 59 °F 40 °F 28 °F (2004)
Degree Days  
Heating Degree Days 0    
Month to date heating degree days 1  
Since 1 July heating degree days 241  
Cooling Degree Days 1    
Month to date cooling degree days 1  
Year to date cooling degree days 2580  
Growing Degree Days 16 (Base 50)    
Moisture  
Dew Point 55 °F    
Average Humidity 71    
Maximum Humidity 93    
Minimum Humidity 49    
Precipitation  
Precipitation T in 0.03 in 0.63 in (2005)
Month to date precipitation 0.03 0.05  
Year to date precipitation 3.79 5.50  
Since 1 July precipitation 0.17  
Snow  
Snow 0.00 in - - ()
Month to date snowfall 0.0  
Since 1 July snowfall 0.0  
Snow Depth 0.00 in    
Sea Level Pressure  
Sea Level Pressure 30.03 in    
Wind  
Wind Speed 4 mph (NNE)    
Max Wind Speed 20 mph    
Max Gust Speed 22 mph    
Visibility 10 miles    
Events Rain    
T = Trace of Precipitation, MM = Missing Value Source: NWS Daily Summary

Daily Weather History Graph

Daily Weather History Graph

Search for Another Location

Airport or City:

Trip Planner

Search our weather history database for the weather conditions in past years. The results will help you decide how hot, cold, wet, or windy it might be!

Date:

Astronomy

Dec. 02, 2012 Rise Set
Actual Time 6:48 AM PST 4:43 PM PST
Civil Twilight 6:20 AM PST 5:11 PM PST
Nautical Twilight 5:48 AM PST 5:42 PM PST
Astronomical Twilight 5:18 AM PST 6:13 PM PST
Moon 8:31 PM PST (12/2) 9:44 AM PST (12/2)
Length of Visible Light 10h 51m
Length of Day
9h 55m
Waning Gibbous, 85% of the Moon is Illuminated
Dec 2
Waning Gibbous
Dec 6
Last Quarter
Dec 13
New
Dec 19
First Quarter
Dec 28
Full

Hourly Weather History & Observations

Time (PST) Temp. Dew Point Humidity Pressure Visibility Wind Dir Wind Speed Gust Speed Precip Events Conditions
12:54 AM 60.1 °F 57.9 °F 93% 30.05 in 7.0 mi East 4.6 mph - N/A   Overcast
1:54 AM 61.0 °F 57.9 °F 90% 30.05 in 10.0 mi Calm Calm - N/A   Overcast
2:54 AM 60.1 °F 57.9 °F 93% 30.04 in 8.0 mi Calm Calm - N/A   Overcast
3:54 AM 59.0 °F 57.0 °F 93% 30.03 in 10.0 mi SE 3.5 mph - N/A   Overcast
4:54 AM 60.1 °F 55.9 °F 86% 30.03 in 10.0 mi ESE 3.5 mph - N/A   Overcast
5:54 AM 60.1 °F 54.0 °F 80% 30.02 in 10.0 mi ESE 4.6 mph - N/A   Mostly Cloudy
6:54 AM 61.0 °F 52.0 °F 72% 30.01 in 10.0 mi East 6.9 mph - N/A   Scattered Clouds
7:54 AM 59.0 °F 55.0 °F 87% 30.04 in 10.0 mi SSW 3.5 mph - N/A   Overcast
8:54 AM 63.0 °F 55.0 °F 75% 30.04 in 10.0 mi Calm Calm - N/A   Partly Cloudy
9:54 AM 64.9 °F 55.0 °F 70% 30.05 in 10.0 mi Calm Calm - N/A   Overcast
10:54 AM 70.0 °F 54.0 °F 57% 30.04 in 10.0 mi NNW 8.1 mph - N/A   Overcast
11:54 AM 72.0 °F 54.0 °F 53% 30.01 in 10.0 mi NNW 9.2 mph - N/A   Mostly Cloudy
12:54 PM 71.6 °F 51.8 °F 50% 30.00 in 10.0 mi NW 11.5 mph - N/A   Partly Cloudy
1:54 PM 70.0 °F 51.1 °F 51% 29.98 in 10.0 mi Variable 3.5 mph - N/A   Overcast
2:54 PM 70.0 °F 50.0 °F 49% 29.98 in 10.0 mi NE 3.5 mph - N/A   Overcast
3:54 PM 66.9 °F 52.0 °F 59% 30.00 in 10.0 mi NNE 5.8 mph - 0.00 in Rain Light Rain
4:54 PM 64.9 °F 52.0 °F 63% 30.02 in 7.0 mi North 5.8 mph - 0.00 in Rain Light Rain
5:54 PM 60.1 °F 55.9 °F 86% 30.02 in 5.0 mi ENE 8.1 mph - 0.08 in Rain Light Rain
6:54 PM 60.1 °F 55.9 °F 86% 30.01 in 10.0 mi East 9.2 mph - 0.01 in   Overcast
7:54 PM 62.1 °F 55.9 °F 80% 30.00 in 10.0 mi ENE 5.8 mph - N/A   Overcast
8:54 PM 61.0 °F 55.9 °F 83% 30.02 in 10.0 mi Calm Calm - N/A   Mostly Cloudy
9:54 PM 60.1 °F 55.9 °F 86% 30.05 in 10.0 mi WNW 5.8 mph - N/A   Overcast
10:54 PM 59.0 °F 57.0 °F 93% 30.05 in 10.0 mi NW 8.1 mph - N/A   Overcast
11:20 PM 59.0 °F 57.2 °F 94% 30.05 in 9.0 mi NNW 6.9 mph - 0.00 in Rain Light Rain
11:23 PM 59.0 °F 57.2 °F 94% 30.05 in 9.0 mi NNW 6.9 mph - 0.00 in Rain Light Rain
11:54 PM 57.9 °F 55.9 °F 93% 30.06 in 10.0 mi NW 6.9 mph - 0.00 in   Overcast